RH
16 13 10 18 12 23 23 18 17 18 18 15 16 12 12 11 10 13 30 24 34 24 26 28 32 32 31 26 19 14 16 28 32 26 38 46 50 50 46 28 28 29 29 50 67 67 53 53 61
21 15 15 19 16 15 14 20 22 17 20 19 16 14 8 21 33 33 32 29 27 21 26 27 28 31 31 30 25 17 15 16 17 18 26 42 37 42 30 26 28 26 34 48 58 58 50 55 64
23 20 24 36 39 19 18 22 18 26 24 23 22 12 13 25 30 38 40 35 20 18 22 22 25 28 32 32 30 24 16 16 17 19 22 30 31 28 24 26 26 31 33 39 45 47 55 71 70
24 23 20 32 28 27 23 22 26 30 29 29 25 20 25 32 28 28 64 49 40 28 28 27 27 30 33 34 32 31 23 17 16 19 19 24 28 23 25 26 30 33 31 35 35 44 55 66 67
31 26 32 28 26 27 22 29 32 38 34 32 28 30 27 28 24 26 52 67 51 46 42 34 36 41 42 39 36 35 32 23 17 18 19 20 27 24 26 28 32 32 35 30 30 40 52 57 68
39 27 39 36 28 23 31 39 35 34 33 28 28 29 26 29 25 24 25 64 70 65 64 57 56 51 50 49 44 40 38 33 22 18 19 21 23 26 28 32 30 32 35 28 31 39 48 60 65
51 60 49 33 35 45 45 36 27 26 32 32 26 30 30 28 28 28 26 32 70 76 68 70 72 84 68 57 52 46 43 38 33 22 19 20 21 28 28 34 32 33 37 30 31 40 52 58 61
46 58 60 57 57 53 28 25 22 26 31 34 34 62 64 51 35 28 25 24 48 56 70 81 81 71 85 80 64 53 48 44 38 32 22 21 22 30 29 34 33 33 38 32 32 44 52 53 61
52 76 78 62 60 50 23 26 25 30 38 49 64 68 68 47 35 25 24 22 24 37 48 63 92 99 82 80 91 67 56 49 44 39 30 24 24 29 34 32 32 35 40 33 37 48 53 59 70
58 81 68 34 31 24 55 49 47 51 55 58 41 42 56 45 31 28 32 33 31 30 33 43 63 94 99 100 99 87 85 58 51 46 41 32 28 27 32 35 35 37 43 34 41 54 59 76 70
34 60 25 23 23 24 39 55 57 58 60 64 69 69 52 47 40 37 38 38 39 39 36 39 44 63 98 99 98 99 100 71 60 53 48 42 34 31 35 38 40 39 46 39 49 63 72 82 72
24 22 22 21 28 26 51 56 61 64 65 72 75 74 60 47 45 48 45 42 35 33 34 35 39 52 78 98 99 98 100 99 73 62 57 51 44 37 34 34 39 40 43 41 38 62 68 84 78
24 22 22 28 36 49 46 57 56 66 66 69 73 71 65 60 52 49 49 46 43 37 34 33 36 38 54 92 100 100 98 99 91 80 68 69 54 46 39 34 34 42 39 39 35 55 65 86 82
20 23 22 17 37 46 56 62 56 63 66 66 68 69 67 69 67 56 48 49 47 41 38 35 34 34 35 40 80 100 100 99 99 82 84 71 72 60 49 42 35 37 37 36 36 38 65 82 82
23 31 24 18 23 47 42 62 71 65 66 68 63 64 63 67 64 67 67 61 55 52 42 37 33 34 33 34 37 56 100 100 100 100 95 87 82 75 67 52 42 37 38 36 33 32 64 82 85
29 24 29 23 36 38 41 80 65 64 65 65 60 57 53 51 60 68 69 68 64 58 52 44 40 34 32 32 33 33 44 97 100 100 99 94 80 90 74 69 57 42 44 39 32 34 42 82 86
30 31 28 30 54 50 54 78 60 59 63 64 60 56 54 44 37 47 57 64 74 72 63 56 50 46 36 30 32 33 36 46 92 100 100 98 94 89 96 76 77 78 56 41 37 33 27 64 89
33 32 30 34 61 62 68 77 62 58 60 63 64 61 62 55 51 46 46 51 67 75 91 86 68 60 54 47 32 33 33 37 45 77 100 100 99 100 99 100 91 95 98 49 46 32 30 32 81
29 32 35 34 58 67 72 75 61 54 57 61 64 64 65 63 57 50 43 43 55 70 91 93 94 95 78 66 55 34 32 30 34 48 80 100 100 99 99 100 100 100 100 76 46 43 33 34 63
37 39 53 49 57 64 67 66 56 52 56 61 64 65 66 61 54 48 45 43 46 55 71 95 99 98 99 97 84 81 62 43 38 36 50 100 100 100 100 100 99 100 100 100 95 52 37 40 43
45 53 57 59 62 64 68 75 54 48 50 59 58 64 63 64 62 58 53 45 41 49 56 69 97 100 98 100 95 96 88 63 59 54 47 53 87 97 97 100 99 99 100 98 100 70 48 33 36
63 44 58 65 69 91 73 97 64 58 61 61 60 64 64 62 57 58 55 44 61 54 45 49 71 100 98 98 97 100 100 98 95 89 73 56 54 73 94 90 97 99 99 100 99 99 56 44 30
60 58 68 66 80 76 67 86 69 66 67 70 62 66 61 60 60 61 58 47 48 41 43 43 58 71 98 100 100 93 98 100 97 99 100 97 79 80 51 54 62 77 92 100 100 100 97 66 36
56 59 49 70 69 91 80 78 77 83 74 73 65 63 59 58 52 57 57 51 48 43 37 38 50 60 77 100 92 99 92 97 98 98 96 98 98 97 100 79 70 62 88 75 100 100 99 86 63
68 65 83 75 95 91 70 73 77 61 66 69 72 62 55 52 50 58 62 58 51 49 49 43 51 55 55 81 99 100 100 94 97 99 100 98 99 97 99 100 94 75 55 70 81 80 100 99 83
78 74 92 79 100 95 64 76 73 62 61 51 55 56 50 48 49 56 61 61 58 54 52 47 54 56 60 54 89 98 100 100 95 99 100 100 100 98 100 100 100 99 75 69 79 85 100 100 100
72 91 73 89 80 87 84 75 60 62 57 50 54 55 50 48 48 52 55 58 58 55 53 56 54 52 57 62 65 91 100 96 93 95 99 100 100 99 100 100 98 100 92 62 60 64 91 100 98
71 67 87 92 97 92 80 82 88 72 71 72 66 56 48 48 48 50 52 56 58 56 55 56 56 54 58 69 77 80 92 99 86 91 96 98 100 100 100 100 100 100 100 84 78 77 73 90 100
79 89 93 86 94 99 98 76 75 76 74 82 69 48 48 48 49 50 52 56 58 59 59 58 56 51 52 64 72 81 77 94 95 90 93 98 100 99 100 100 100 99 100 100 85 83 73 87 99
71 95 92 88 79 98 89 86 76 73 69 66 50 48 47 47 48 49 51 55 59 62 63 60 53 41 53 61 75 85 82 70 90 95 91 98 98 99 100 100 99 100 100 100 99 70 62 67 80
Wind_Speed
17 17 13 5 4 5 0 3 2 11 11 23 22 3 8 8 1 4 1 11 6 15 24 24 21 19 18 17 16 16 17 18 19 19 19 19 17 16 16 18 19 19 20 19 18 18 18 18 15
16 16 7 4 4 4 4 3 9 5 14 28 17 21 8 4 13 12 2 3 4 13 20 21 21 20 18 18 17 16 17 18 18 18 19 18 17 17 17 19 19 19 19 18 18 17 17 18 17
12 12 4 4 3 3 1 3 4 13 18 25 14 10 11 23 29 23 19 11 6 10 18 19 21 21 20 19 18 17 18 18 18 18 18 18 17 18 19 20 20 19 18 19 18 18 19 21 20
7 4 5 4 1 1 3 4 9 10 14 26 23 4 15 31 29 41 27 7 9 17 19 20 21 21 21 20 18 18 18 18 18 19 18 18 19 19 20 20 20 19 19 19 19 21 21 21 21
5 4 4 3 3 2 2 7 11 7 9 14 22 9 7 36 30 33 29 18 8 16 19 20 21 21 20 20 20 19 19 19 19 19 19 18 20 19 20 20 19 19 20 20 21 22 22 22 23
5 3 5 1 4 2 2 17 11 14 14 20 23 22 4 31 27 35 28 17 10 10 14 18 21 22 22 22 21 20 20 19 19 19 19 19 20 21 20 20 19 20 21 21 22 22 23 24 25
5 3 4 3 4 3 6 10 18 9 21 18 17 5 12 34 32 26 22 18 12 10 13 14 18 20 24 24 23 22 21 20 19 19 20 20 21 22 21 20 20 20 21 21 22 23 25 25 25
4 4 4 3 1 3 11 8 18 18 11 5 18 12 12 40 33 22 14 14 12 11 10 11 14 18 22 23 24 24 23 22 21 20 20 21 22 24 22 21 20 21 21 22 23 25 26 25 24
2 4 1 3 5 5 17 10 18 12 19 22 17 19 23 29 30 22 15 11 7 6 12 12 10 15 20 23 26 28 27 25 23 22 21 22 24 25 24 23 22 22 23 23 24 26 27 27 26
5 4 4 9 6 3 25 24 10 12 26 24 34 25 29 30 30 32 32 26 18 16 14 13 14 12 18 19 23 27 29 26 27 27 26 26 27 27 27 25 23 24 24 24 26 28 29 30 28
4 3 6 6 11 8 11 32 28 12 12 21 23 31 32 32 31 31 31 29 28 23 20 17 14 15 15 19 22 26 26 28 30 31 30 29 29 29 30 28 27 27 27 28 29 30 34 33 28
4 7 13 11 12 6 7 12 23 28 11 15 14 20 29 32 34 35 36 33 29 24 23 21 16 14 14 20 21 22 26 29 32 35 34 34 33 34 34 33 31 31 32 32 32 34 36 35 31
4 5 7 19 29 28 27 19 20 26 22 22 19 26 31 34 33 32 33 33 34 30 26 23 21 17 11 12 20 24 25 30 33 37 37 37 36 37 37 37 35 35 35 35 35 36 38 38 34
2 5 8 15 17 18 25 12 10 22 21 26 28 30 33 35 36 36 37 38 37 35 32 27 23 20 15 12 15 22 27 23 30 34 39 40 41 41 41 41 39 38 38 37 37 38 39 41 37
3 4 4 13 11 5 8 19 10 20 19 22 29 29 33 36 38 41 41 41 40 38 35 33 28 23 20 17 13 13 22 25 25 30 36 36 42 44 45 45 43 42 40 39 38 39 40 42 39
4 5 4 8 17 11 9 4 11 19 19 24 30 33 34 36 36 36 40 43 43 40 38 36 34 28 22 21 18 13 12 24 28 28 36 38 36 45 48 48 48 44 44 42 40 41 43 45 43
7 2 2 3 19 4 9 2 8 15 17 21 30 33 35 37 38 37 38 42 45 42 40 40 39 36 31 22 21 19 15 14 29 31 25 38 38 40 45 52 52 46 47 46 44 44 45 48 47
3 2 2 2 3 14 13 6 3 10 17 19 25 30 34 38 38 37 37 38 42 43 40 41 41 42 39 34 24 22 21 19 18 27 29 28 42 40 43 48 54 49 49 49 47 46 47 49 50
2 2 1 3 7 8 6 4 2 8 15 21 26 29 32 36 36 36 38 37 37 42 42 41 41 41 44 43 40 29 25 24 24 22 32 32 32 46 42 48 53 53 51 53 52 50 49 51 50
2 2 2 2 8 6 4 4 1 6 12 17 21 26 30 36 37 38 38 39 38 38 44 41 38 39 41 40 38 38 33 29 28 27 25 35 34 30 47 49 53 55 54 53 52 53 53 53 54
4 4 2 4 6 6 5 2 4 2 8 18 24 25 28 30 34 37 40 39 39 37 39 44 39 37 39 40 38 32 36 27 29 30 30 27 35 43 31 43 52 55 55 52 53 55 58 58 58
4 4 6 4 2 3 1 3 3 5 6 17 23 28 28 30 33 35 39 40 39 41 38 36 42 36 39 39 41 33 32 34 34 34 35 33 32 34 50 36 29 13 51 54 53 55 61 61 63
5 13 6 3 6 4 4 3 4 5 7 13 19 26 27 27 28 33 37 38 39 40 41 41 37 41 39 40 39 39 33 29 31 32 32 33 27 22 35 35 24 65 41 46 57 56 58 64 64
10 3 6 5 3 4 4 4 5 3 4 7 16 25 26 28 29 30 33 36 38 40 42 41 42 39 40 40 43 41 39 33 30 27 28 28 25 14 24 25 27 34 66 46 29 54 60 63 66
7 5 3 5 5 3 4 1 5 3 4 5 15 23 23 24 27 27 31 35 38 40 41 42 42 43 41 39 39 40 41 38 31 29 28 26 23 20 27 20 27 32 38 63 68 45 65 60 68
4 4 4 2 1 4 4 2 4 4 8 13 17 19 20 22 25 25 26 31 35 38 40 42 41 42 42 41 37 36 40 40 37 31 27 25 21 19 25 28 26 31 33 56 54 40 53 67 65
4 5 2 4 3 3 3 6 4 5 9 16 18 20 20 21 24 24 25 28 33 37 40 40 42 42 41 41 40 37 35 41 41 38 32 25 20 19 20 24 29 30 33 28 56 60 31 60 64
6 2 2 3 4 4 4 2 4 8 8 10 22 23 21 20 21 24 26 28 32 36 39 41 41 42 41 39 39 39 36 35 41 41 38 32 26 18 15 19 22 31 32 31 29 47 45 55 65
4 4 4 4 3 3 1 5 7 7 6 8 21 16 18 21 21 24 25 25 29 32 36 40 43 43 41 39 38 39 40 35 33 39 41 38 31 23 16 7 16 25 32 37 36 43 50 37 29
3 4 5 4 6 1 4 5 4 11 15 15 16 14 18 20 23 22 26 27 29 31 35 40 43 44 40 36 35 36 39 36 34 33 38 38 34 28 25 16 1 16 30 34 41 49 43 46 30
Wind_Direction
350 349 342 340 45 61 340 97 226 10 343 338 332 304 265 276 205 238 163 170 209 195 191 188 190 186 182 185 186 187 185 181 179 178 181 177 172 165 158 158 161 159 157 156 151 152 148 152 148
352 357 3 26 74 49 316 5 29 355 328 348 355 349 21 346 3 328 332 183 225 202 193 189 192 191 190 189 189 188 189 187 184 180 180 184 175 168 162 163 164 161 161 161 159 158 155 152 149
341 353 25 80 86 115 113 37 353 341 7 1 354 19 12 347 353 347 328 273 215 192 198 197 199 196 195 196 191 190 190 191 188 185 182 186 178 174 170 168 168 167 165 167 168 163 157 150 150
342 6 56 74 30 258 80 2 341 358 7 7 1 23 49 23 10 6 343 275 244 196 201 203 206 205 201 201 198 194 193 193 192 191 187 185 185 179 174 172 170 171 169 169 169 166 162 157 154
30 45 50 38 284 98 62 18 16 8 17 3 352 323 50 3 10 21 9 346 249 210 210 212 211 212 212 213 209 200 197 196 195 194 192 187 191 183 179 175 175 175 172 169 168 167 166 162 159
49 51 56 335 266 50 56 7 23 28 356 357 352 330 69 354 12 11 3 353 308 273 258 232 223 217 217 219 220 213 205 200 198 196 195 191 193 189 184 182 179 179 176 173 169 170 168 163 162
107 83 181 209 276 42 26 355 27 19 25 12 352 26 325 353 0 14 11 356 349 286 273 263 266 243 225 223 223 223 217 209 202 199 197 195 195 195 187 187 185 185 180 177 173 172 170 167 164
120 93 137 245 196 73 3 16 2 25 55 7 32 17 343 348 354 347 352 359 7 2 343 287 265 249 254 240 228 227 224 220 212 204 202 200 198 199 193 189 190 188 185 181 177 175 173 171 166
89 64 129 6 25 354 360 10 7 48 51 47 35 18 346 353 357 343 333 315 338 324 335 340 289 267 249 247 244 230 224 223 219 213 207 205 202 200 200 194 191 193 190 186 181 179 178 174 167
64 82 40 56 31 341 60 47 351 51 33 1 358 5 3 3 2 6 13 12 3 354 356 333 319 285 268 264 257 243 238 222 222 220 212 208 209 204 203 199 193 194 193 190 185 182 180 178 175
21 70 347 351 351 18 117 63 46 22 42 7 347 344 1 6 8 7 6 9 8 360 356 355 329 297 270 268 257 262 245 229 226 224 220 215 211 208 207 202 195 194 195 193 188 186 184 184 183
77 43 20 345 21 61 44 84 58 45 22 358 357 1 12 12 13 11 7 2 358 358 354 358 353 331 276 261 256 244 251 244 232 228 224 221 214 213 211 207 200 198 198 196 194 191 189 189 189
71 3 33 77 87 79 85 70 71 30 14 23 21 22 24 22 18 15 12 7 1 356 352 348 349 348 335 267 240 240 235 243 244 239 227 227 225 219 217 213 206 202 202 198 198 196 193 192 193
360 8 62 38 92 85 75 48 59 5 7 25 29 27 25 24 21 17 13 9 6 360 356 349 341 339 334 338 266 240 240 237 246 248 244 233 229 227 224 220 213 208 206 203 201 200 196 195 197
3 81 48 28 11 114 175 38 31 2 10 21 29 27 26 26 24 21 16 11 7 3 357 352 345 338 329 321 312 289 240 235 235 251 254 248 237 229 230 226 221 215 210 208 203 202 201 198 200
49 52 41 35 356 16 143 51 12 9 16 19 25 24 23 28 25 22 18 15 11 6 2 356 350 344 335 321 308 294 297 244 234 233 252 250 250 241 231 233 229 222 213 211 207 204 203 202 203
16 63 21 354 16 55 52 125 359 22 26 23 23 21 18 18 18 19 17 14 14 10 7 2 357 352 344 328 309 295 281 266 244 231 238 256 253 252 246 233 233 226 220 214 209 206 206 204 204
324 5 317 15 48 75 81 116 338 20 28 23 18 17 13 14 14 14 14 15 15 14 14 8 5 358 352 344 324 297 282 268 253 247 232 235 255 249 255 246 234 228 223 218 211 210 207 209 205
145 173 249 93 162 79 90 116 14 24 32 20 15 13 12 12 12 13 14 12 12 14 18 11 9 7 0 352 344 323 297 272 253 251 239 234 229 253 251 247 237 228 224 227 216 209 208 210 207
20 57 11 325 159 92 160 62 311 26 34 16 9 10 10 11 14 15 17 15 11 8 14 12 8 10 6 360 349 338 319 296 279 264 247 236 239 230 242 243 236 228 225 226 223 209 209 212 210
343 140 254 229 91 67 153 63 8 350 8 9 13 11 17 15 12 13 14 16 14 10 12 10 13 9 7 2 354 345 331 307 291 276 264 241 233 235 227 234 231 231 227 220 220 216 211 209 212
313 358 311 251 173 135 187 261 317 354 346 3 2 5 9 12 15 15 14 15 13 14 15 11 11 13 11 9 2 356 346 333 314 302 290 275 249 238 236 255 261 207 228 223 222 226 213 213 212
297 316 312 165 130 106 6 73 280 12 351 348 347 357 6 8 13 14 14 16 17 15 16 15 11 13 19 14 11 2 355 342 323 311 304 289 280 280 258 265 268 251 268 230 229 220 222 215 216
322 354 12 42 67 45 273 111 307 353 309 320 342 2 5 4 7 10 13 15 16 16 16 15 14 12 14 19 17 11 1 355 344 329 312 302 281 267 281 263 255 247 241 254 247 227 228 223 217
359 46 359 6 20 224 311 78 234 246 303 317 343 359 4 4 5 6 9 12 14 14 14 14 12 11 10 14 17 16 10 2 357 349 338 313 299 264 249 261 263 247 252 254 253 285 224 230 220
19 60 123 171 8 287 342 316 274 250 295 341 1 1 6 8 8 6 5 9 12 13 12 11 10 9 7 9 11 16 16 9 2 357 352 338 309 281 248 242 240 242 243 236 250 265 229 225 228
339 43 123 99 57 35 282 305 333 356 335 346 349 356 3 5 7 5 4 7 9 9 9 8 7 4 4 4 8 8 15 18 7 1 358 355 339 301 274 248 237 236 244 249 236 249 262 230 234
84 304 49 27 33 330 304 290 242 322 308 322 340 347 353 354 358 1 3 4 5 5 5 4 5 3 0 0 3 7 8 13 17 8 0 358 8 339 307 258 239 232 235 243 232 231 258 259 225
355 8 37 105 111 148 302 281 220 244 263 292 320 336 348 354 352 355 354 357 358 360 1 0 360 358 356 355 358 1 5 10 12 15 7 1 7 17 359 294 246 230 225 233 228 223 217 256 243
129 165 125 105 287 116 147 278 235 250 298 305 309 338 354 355 354 349 351 352 352 355 357 356 357 355 352 354 354 358 0 5 12 13 15 4 1 22 26 27 316 228 224 220 225 224 222 221 270